| time (UTC) | temp F | wind direction | speed MPH | gust MPH | rain 1hr in | rain 24hr in | rain mn in | humidity % | barometer mb |
| 20260504050424 | 63 | 0 | 0.0 | 0.0 | 0.00 | 0.00 | 0.00 | 74 | 1012.9 |
| 20260504045833 | 63 | 0 | 0.0 | 0.0 | 0.00 | 0.00 | 0.00 | 74 | 1012.9 |
| 20260504045044 | 64 | 0 | 0.0 | 0.0 | 0.00 | 0.00 | 0.00 | 72 | 1013.1 |
| 20260504044119 | 64 | 0 | 0.0 | 1.0 | 0.00 | 0.00 | 0.00 | 71 | 1013.1 |
| 20260504043618 | 0 | 0 | 0.0 | 0.0 | 0.00 | 0.00 | 0.00 | ||
| 20260504020109 | 71 | 0 | 0.0 | 0.0 | 0.00 | 0.00 | 0.00 | 58 | 1012.4 |
| 20260504015254 | 71 | 0 | 0.0 | 1.0 | 0.00 | 0.00 | 0.00 | 58 | 1012.4 |
| 20260504014642 | 76 | 0 | 0.0 | 0.0 | 0.00 | 0.00 | 0.00 | 51 | 1012.2 |
| 20260504014115 | 76 | 106 | 0.0 | 0.0 | 0.00 | 0.00 | 0.00 | 51 | 1012.2 |
| 20260504005537 | 76 | 0 | 0.0 | 0.0 | 0.00 | 0.00 | 0.00 | 51 | 1012.2 |
| 20260504004516 | 76 | 0 | 0.0 | 1.0 | 0.00 | 0.00 | 0.00 | 51 | 1012.2 |
| 20260504003416 | 76 | 0 | 0.0 | 1.0 | 0.00 | 0.00 | 0.00 | 51 | 1012.2 |
| 20260504002916 | 77 | 0 | 0.0 | 1.0 | 0.00 | 0.00 | 0.00 | 50 | 1012.2 |
| 20260504002416 | 77 | 0 | 0.0 | 2.0 | 0.00 | 0.00 | 0.00 | 50 | 1012.2 |
| 20260504001914 | 77 | 0 | 0.0 | 2.0 | 0.00 | 0.00 | 0.00 | 49 | 1012.2 |
| 20260504001413 | 78 | 78 | 0.0 | 2.0 | 0.00 | 0.00 | 0.00 | 47 | 1012.1 |
| 20260504000914 | 81 | 0 | 0.0 | 0.0 | 0.00 | 0.00 | 0.00 | 43 | 1012.2 |
| 20260503235652 | 81 | 0 | 0.0 | 0.0 | 0.00 | 0.00 | 0.00 | 43 | 1012.2 |
| 20260503234117 | 81 | 0 | 0.0 | 2.0 | 0.00 | 0.00 | 0.00 | 43 | 1012.2 |
| 20260503233619 | 82 | 0 | 0.0 | 0.0 | 0.00 | 0.00 | 0.00 | 44 | 1012.3 |
| 20260503231109 | 82 | 0 | 0.0 | 3.0 | 0.00 | 0.00 | 0.00 | 44 | 1012.3 |
| 20260503230536 | 82 | 0 | 0.0 | 3.0 | 0.00 | 0.00 | 0.00 | 44 | 1012.3 |
| 20260503230037 | 82 | 83 | 1.0 | 4.0 | 0.00 | 0.00 | 0.00 | 45 | 1012.3 |
| 20260503225537 | 83 | 185 | 1.0 | 4.0 | 0.00 | 0.00 | 0.00 | 44 | 1012.3 |
| 20260503225037 | 83 | 164 | 0.0 | 2.0 | 0.00 | 0.00 | 0.00 | 43 | 1012.5 |
| 20260503224537 | 83 | 0 | 0.0 | 3.0 | 0.00 | 0.00 | 0.00 | 43 | 1012.6 |
| 20260503223941 | 84 | 224 | 0.0 | 3.0 | 0.00 | 0.00 | 0.00 | 42 | 1012.6 |
| 20260503223437 | 85 | 209 | 0.0 | 2.0 | 0.00 | 0.00 | 0.00 | 42 | 1012.5 |
| 20260503222939 | 86 | 226 | 0.0 | 3.0 | 0.00 | 0.00 | 0.00 | 42 | 1012.7 |
| 20260503222437 | 88 | 41 | 0.0 | 3.0 | 0.00 | 0.00 | 0.00 | 40 | 1012.7 |
| 20260503221936 | 89 | 0 | 0.0 | 3.0 | 0.00 | 0.00 | 0.00 | 41 | 1012.8 |
| 20260503221433 | 89 | 0 | 0.0 | 3.0 | 0.00 | 0.00 | 0.00 | 40 | 1012.9 |
| 20260503220933 | 88 | 0 | 0.0 | 3.0 | 0.00 | 0.00 | 0.00 | 40 | 1013.0 |
| 20260503220430 | 88 | 144 | 1.0 | 3.0 | 0.00 | 0.00 | 0.00 | 39 | 1013.0 |
| 20260503215932 | 88 | 0 | 1.0 | 4.0 | 0.00 | 0.00 | 0.00 | 39 | 1012.8 |
| 20260503215428 | 89 | 62 | 1.0 | 4.0 | 0.00 | 0.00 | 0.00 | 38 | 1012.9 |
| 20260503214928 | 89 | 0 | 0.0 | 3.0 | 0.00 | 0.00 | 0.00 | 38 | 1012.8 |
| 20260503214300 | 89 | 328 | 0.0 | 3.0 | 0.00 | 0.00 | 0.00 | 38 | 1012.8 |
| 20260503213800 | 88 | 0 | 0.0 | 3.0 | 0.00 | 0.00 | 0.00 | 39 | 1013.0 |
| 20260503213301 | 87 | 0 | 1.0 | 6.0 | 0.00 | 0.00 | 0.00 | 40 | 1013.2 |
| 20260503212801 | 87 | 0 | 1.0 | 6.0 | 0.00 | 0.00 | 0.00 | 39 | 1013.4 |
| 20260503212301 | 88 | 184 | 1.0 | 6.0 | 0.00 | 0.00 | 0.00 | 40 | 1013.5 |
| 20260503211802 | 89 | 85 | 1.0 | 6.0 | 0.00 | 0.00 | 0.00 | 39 | 1013.5 |
| 20260503211302 | 88 | 0 | 1.0 | 5.0 | 0.00 | 0.00 | 0.00 | 39 | 1013.6 |
| 20260503210801 | 88 | 9 | 1.0 | 6.0 | 0.00 | 0.00 | 0.00 | 40 | 1013.6 |
| 20260503210259 | 89 | 354 | 1.0 | 6.0 | 0.00 | 0.00 | 0.00 | 38 | 1013.6 |